Location: ??
(35.5990°N, 139.7298°E)
Time: 05:28:32
(UTC+00:00)

ATLAS 5 CENTAUR R/B - Pass Details

Date: 07 June 2020
Orbit: 280 x 14309 km, 60.7° (Epoch: 05 July)

Event Time Altitude Azimuth Distance (km) Brightness Sun altitude
Rises 10:30:09 0° 188° (S) 9,289 7.8 -6.9°
Reaches altitude 10° 10:39:44 10° 178° (S) 5,917 6.7 -8.5°
Maximum altitude 10:49:20 23° 135° (SE) 2,526 4.5 -10.1°
Drops below altitude 10° 10:53:26 10° 82° (E) 2,316 4.6 -10.7°
Sets 10:55:19 0° 64° (ENE) 2,781 5.2 -11.0°
